INDIA1 VIDP-YSSY

Flight info

Callsign INDIA1
Flight time N/A
Altitude 31000
Route AKRI7B AKRIB Z16 BULDI W19 BPL J3 HIA W20 MMV A465 KAT N640 ELATI N509 PD T21 LEC J141 PKS W440 AKMIR W113 ODALE
Aircraft B77W/H-SADE1E2E3FGHIJ2J3J4J5J6J7M1M3P1P2P3RUWXYZ/LB1D1

Departure

Time 2026-04-27 16:15
Airport Indira Gandhi International Airport (VIDP)

Arrival

Time N/A
Airport Sydney Kingsford Smith International Airport (YSSY)
Time Latitude Longitude Altitude Speed Heading
2026-04-27 16:03 28.57223 77.11402 755 ft 0 kts 122°
2026-04-27 16:10 28.57176 77.11442 750 ft 17 kts 149°
2026-04-27 16:10 28.56999 77.11613 750 ft 17 kts 169°
2026-04-27 16:11 28.56883 77.11629 754 ft 17 kts 196°
2026-04-27 16:11 28.56849 77.11394 753 ft 7 kts 271°
2026-04-27 16:12 28.56832 77.11076 752 ft 24 kts 231°
2026-04-27 16:12 28.56677 77.11026 751 ft 24 kts 196°
2026-04-27 16:12 28.56363 77.10946 752 ft 20 kts 169°
2026-04-27 16:13 28.56292 77.11073 752 ft 20 kts 105°
2026-04-27 16:13 28.56219 77.11384 751 ft 20 kts 105°
2026-04-27 16:13 28.56163 77.11526 750 ft 20 kts 149°
2026-04-27 16:14 28.56074 77.11304 751 ft 20 kts 285°
2026-04-27 16:14 28.56302 77.10320 753 ft 131 kts 284°
2026-04-27 16:15 28.56974 77.07608 1270 ft 197 kts 287°
2026-04-27 16:15 28.57745 77.04335 2324 ft 231 kts 284°
2026-04-27 16:16 28.58555 77.00671 3339 ft 248 kts 285°
2026-04-27 16:16 28.59429 76.96755 4462 ft 260 kts 285°
2026-04-27 16:17 28.60340 76.92711 5726 ft 267 kts 285°
2026-04-27 16:17 28.61112 76.88532 6856 ft 274 kts 266°
2026-04-27 16:18 28.59747 76.85288 7793 ft 285 kts 223°
2026-04-27 16:18 28.55380 76.83575 9226 ft 298 kts 186°
2026-04-27 16:19 28.53975 76.83497 9640 ft 301 kts 184°
2026-04-27 16:19 28.51871 76.83444 10218 ft 304 kts 184°
2026-04-27 16:20 28.45441 76.83330 11931 ft 312 kts 184°
2026-04-27 16:20 28.43256 76.83277 12505 ft 315 kts 185°
2026-04-27 16:20 28.38822 76.83151 13637 ft 322 kts 185°
2026-04-27 16:21 28.36600 76.83081 14177 ft 324 kts 185°
2026-04-27 16:21 28.29742 76.82857 15852 ft 331 kts 185°
2026-04-27 16:22 28.27429 76.82779 16401 ft 334 kts 185°
2026-04-27 16:22 28.22738 76.82621 17490 ft 340 kts 185°
2026-04-27 16:22 28.20357 76.82541 18034 ft 344 kts 185°
2026-04-27 16:23 28.17990 76.82460 18514 ft 346 kts 185°
2026-04-27 16:23 28.13150 76.82297 19539 ft 349 kts 185°
2026-04-27 16:23 28.10712 76.82215 20035 ft 352 kts 184°
2026-04-27 16:24 28.08237 76.82131 20377 ft 361 kts 184°
2026-04-27 16:24 28.02989 76.81948 20602 ft 393 kts 184°
2026-04-27 16:25 27.97315 76.81755 20824 ft 423 kts 184°
2026-04-27 16:25 27.91230 76.81551 21129 ft 448 kts 184°
2026-04-27 16:26 27.84912 76.81342 21952 ft 457 kts 184°
2026-04-27 16:26 27.78531 76.81131 22982 ft 461 kts 184°
2026-04-27 16:27 27.72072 76.80915 23768 ft 467 kts 184°
2026-04-27 16:27 27.62298 76.80587 24890 ft 474 kts 184°
2026-04-27 16:28 27.55667 76.80366 25619 ft 479 kts 184°
2026-04-27 16:28 27.48970 76.80142 26349 ft 484 kts 184°
2026-04-27 16:29 27.38788 76.79967 27358 ft 492 kts 181°
2026-04-27 16:30 27.31904 76.80286 28023 ft 497 kts 180°
2026-04-27 16:30 27.24974 76.80632 28617 ft 501 kts 180°
2026-04-27 16:31 27.14512 76.81118 29435 ft 507 kts 180°
2026-04-27 16:31 27.07413 76.81433 29893 ft 511 kts 180°
2026-04-27 16:32 27.00307 76.81747 30407 ft 510 kts 180°
2026-04-27 16:32 26.96751 76.81906 30602 ft 512 kts 180°
2026-04-27 16:33 26.86058 76.82381 30665 ft 509 kts 180°
2026-04-27 16:33 26.79029 76.82694 30681 ft 508 kts 180°
2026-04-27 16:34 26.71963 76.83007 30693 ft 508 kts 180°
2026-04-27 16:34 26.64886 76.83319 30695 ft 509 kts 180°
2026-04-27 16:35 26.57792 76.83632 30703 ft 510 kts 180°
2026-04-27 16:36 26.47183 76.84101 30707 ft 511 kts 180°
2026-04-27 16:36 26.40078 76.84414 30711 ft 511 kts 180°
2026-04-27 16:37 26.32955 76.84727 30711 ft 511 kts 180°
2026-04-27 16:37 26.25847 76.85040 30715 ft 511 kts 180°
2026-04-27 16:38 26.18732 76.85352 30708 ft 510 kts 180°
2026-04-27 16:38 26.11635 76.85663 30718 ft 509 kts 180°
2026-04-27 16:39 26.04559 76.85973 30720 ft 509 kts 180°
2026-04-27 16:39 25.97490 76.86282 30721 ft 508 kts 180°
2026-04-27 16:40 25.90934 76.86568 30722 ft 508 kts 180°
2026-04-27 16:40 25.90099 76.86605 30725 ft 508 kts 180°